Saskatoon John G. Diefenbaker International Airport

Jump to: basic info | weather | frequencies | runways | comments

Related pages: nearby airports | nearby navaids | notams | map

Basic information (top)

Codes: YXE CYXE
Location: lon 52.170799, lat -106.699997, elev 1,653 ft / 504 m msl
Status: medium_airport
Scheduled airline service: yes
Links: Wikipedia Mobile

Weather (top)

Current conditions (rec'd 2015/03/30 06:00Z):

CYXE 300600Z 06006KT 15SM BKN070 BKN120 07/02 A2976 RMK AC6AC1 SLP093

Airport forecast (rec'd 2015/03/30 06:42Z):

TAF CYXE 300539Z 3006/3106 VRB03KT P6SM VCSH SCT080 BKN120 
     FM300900 31015G25KT P6SM SCT100 
     FM301500 30018G28KT P6SM FEW030 FEW200 
      BECMG 3020/3022 31012G22KT 
     FM310300 32007KT P6SM SCT120 
      RMK NXT FCST BY 301200Z

Frequencies (top)

Verify before use: may be inaccurate or out of date.

A/D: 119.9 MHz (APP/DEP)
A/G: 118.3 MHz (MF SASKATOON RDO)
ATIS: 128.4 MHz (ATIS)
CNTR: 134.325 MHz (WINNIPEG CNTR)
GND: 121.9 MHz (GND)
RCO: 122.5 MHz (EDMONTON RDO)
TWR: 118.3 MHz (TWR)

Runways (top)

09/27: 8,300 x 200 ft (2,530 x 61 m) — paved — lighted

15/33: 6,200 x 150 ft (1,890 x 46 m) — paved — lighted

Latest comments (top)

Timmies: Timmies in the main terminal. Park at ... [read]

More... (top)

See also NOTAMs and nearby airports and navaids, or visit the Saskatoon John G. Diefenbaker International Airport page at the main OurAirports website..